Theta_e
332 331 330 334 328 322 325 324 318 321 329 326 314 312 314 313 312 314 314 315 321 327 333 336 337 336 337 337 336 336 339 341 346 350 349 347 348 348 349 352 354 357 358 359 360 358 355 354 355 355 353 352 351 350 349 348 348 348 346 344 342 341 342
330 331 329 332 331 328 324 318 320 328 330 327 319 313 313 314 313 314 313 313 315 316 322 336 340 337 337 337 336 336 340 342 341 345 351 354 354 354 354 355 355 356 359 360 360 356 353 353 355 354 352 352 351 350 349 350 350 348 346 345 343 341 342
329 332 329 326 329 332 327 323 328 327 317 316 317 313 313 314 314 315 313 313 314 313 319 332 337 337 339 340 340 337 336 341 339 340 354 363 361 358 357 354 353 354 357 358 358 355 353 353 354 354 353 352 352 349 349 351 350 347 346 345 344 343 343
329 330 326 318 320 328 330 328 331 327 319 316 316 315 314 313 313 315 314 313 314 318 326 334 337 339 340 340 345 342 334 338 341 341 352 362 363 360 355 353 354 353 352 354 355 354 354 352 351 354 354 352 351 349 349 351 349 347 346 345 345 346 344
325 322 324 322 321 324 323 320 320 320 321 321 319 317 315 314 314 314 316 314 314 325 339 342 339 339 338 336 342 344 337 334 338 342 346 353 360 359 355 357 356 350 350 354 353 353 354 352 350 352 353 351 350 349 348 349 348 347 347 346 346 346 344
317 319 328 330 328 329 325 321 319 319 320 317 314 315 315 314 314 314 315 313 314 328 344 344 338 336 335 334 336 339 337 335 338 341 342 350 359 355 353 357 352 348 353 353 352 354 355 353 350 350 352 350 346 347 348 348 348 348 346 347 346 344 342
322 327 332 330 329 332 329 327 327 326 324 317 310 311 314 314 314 315 314 311 317 335 344 341 339 338 335 334 336 336 335 336 337 336 336 350 362 357 349 349 349 352 354 353 353 356 355 352 350 348 350 348 343 346 348 347 347 347 345 346 345 343 341
328 329 331 332 330 332 327 326 330 328 325 322 319 319 319 315 313 314 313 311 318 336 348 344 341 340 335 333 337 336 334 337 337 337 341 351 365 366 355 350 356 359 359 357 355 356 355 352 351 349 348 347 344 346 347 345 345 345 344 346 346 344 343
321 322 325 325 326 328 325 326 330 329 328 328 325 324 324 318 314 315 315 312 317 335 350 346 339 336 334 333 335 334 337 339 336 339 350 355 365 372 365 361 362 358 360 362 357 356 356 352 351 351 349 347 346 347 346 344 343 344 343 346 348 348 347
314 315 316 316 320 324 325 327 329 328 330 327 323 321 318 315 316 318 314 312 322 340 347 341 338 336 335 336 335 334 338 343 342 347 354 357 367 373 371 369 365 360 361 362 358 357 354 351 351 351 349 347 346 345 345 342 340 342 343 342 343 345 348
315 318 323 326 326 322 319 321 325 327 331 330 326 319 315 318 319 317 319 323 325 334 342 340 340 337 337 338 337 336 341 345 348 353 355 358 367 369 366 369 371 369 366 363 360 358 355 352 352 351 349 347 343 342 341 339 338 341 342 340 337 339 344
324 328 332 332 329 322 319 321 323 325 329 330 325 317 321 330 322 314 329 340 327 329 342 342 342 344 344 343 339 338 345 346 344 350 354 355 359 360 361 368 374 372 367 363 362 357 355 354 352 351 349 344 341 339 336 335 339 342 340 338 338 339 341
327 329 329 330 331 327 327 326 324 326 327 325 322 320 326 335 323 318 338 347 332 331 340 337 339 344 343 343 341 337 340 342 341 349 352 347 348 352 357 365 370 369 367 367 363 356 355 355 352 350 348 343 339 337 333 333 338 342 340 337 339 343 342
324 328 328 330 329 326 326 328 327 329 329 326 325 325 327 332 329 329 344 346 337 334 338 335 337 341 338 340 341 336 337 341 344 347 346 340 342 347 356 363 368 369 366 364 361 357 355 355 353 350 346 343 340 336 335 337 337 337 338 338 339 344 343
319 326 328 328 328 326 323 325 329 330 328 327 326 327 327 329 329 331 341 342 339 336 340 339 339 343 342 340 340 340 342 343 341 341 340 340 342 348 359 365 366 367 364 358 359 360 357 354 353 351 347 345 343 339 338 340 338 335 337 340 342 343 340
313 322 326 324 327 326 319 319 325 326 325 325 326 329 330 328 330 332 330 328 332 338 341 338 338 342 341 341 342 344 345 345 344 344 345 347 349 354 361 363 361 360 361 360 362 362 358 354 352 351 349 348 345 343 340 340 339 336 340 344 344 342 340
312 321 324 323 322 318 314 318 325 326 328 329 327 330 333 332 334 332 324 323 334 343 341 337 336 337 338 342 344 343 347 351 349 348 349 347 347 349 356 361 361 360 358 358 362 360 355 353 351 349 349 348 345 344 341 340 340 339 343 345 342 340 340
312 319 323 322 318 313 315 325 330 330 330 330 328 328 333 335 335 334 331 335 341 340 337 337 337 336 340 346 343 341 346 350 349 347 346 345 346 345 348 353 357 361 360 355 356 358 356 353 350 346 346 347 345 344 342 340 340 340 342 341 339 339 341
315 319 321 317 314 318 327 332 333 331 331 331 332 333 334 333 333 335 336 336 338 336 336 337 336 338 342 342 341 341 342 344 345 344 343 346 348 346 347 350 355 365 368 359 355 357 356 353 349 345 343 344 344 342 339 336 337 339 339 339 340 341 340
318 317 315 315 319 328 336 338 333 332 334 335 332 331 333 332 333 336 336 336 336 337 337 335 336 339 339 338 340 342 341 341 339 337 337 340 341 343 349 356 362 366 365 359 355 354 353 351 349 346 344 342 340 337 334 334 337 340 340 339 340 339 338
320 314 311 318 323 325 331 336 336 334 334 334 331 326 331 338 335 335 340 340 336 334 335 334 336 338 336 335 338 339 339 342 339 336 337 335 336 344 349 350 354 356 356 356 354 352 351 348 346 346 343 338 336 333 333 335 339 339 338 338 337 335 335
322 315 313 317 317 316 324 333 336 335 333 334 335 329 329 337 335 333 338 341 337 336 337 336 336 337 335 335 337 337 336 340 339 336 336 333 334 341 343 341 344 350 355 359 356 353 353 347 342 342 339 335 334 334 334 336 335 334 335 335 333 333 333
322 318 315 317 314 316 329 337 335 333 331 333 334 326 324 335 338 333 334 337 337 338 337 336 338 337 334 334 336 336 335 336 337 338 338 338 337 338 340 341 342 346 355 359 355 352 349 342 339 337 333 332 333 335 335 334 332 333 335 333 332 331 331
320 319 317 318 318 324 335 336 331 331 333 334 330 319 321 334 337 334 335 336 339 341 339 337 336 335 335 335 333 332 333 334 336 338 339 341 341 338 339 341 339 343 356 357 352 347 343 339 336 334 330 331 333 334 334 330 330 333 333 331 331 331 330
318 318 317 317 322 331 336 332 331 333 331 329 323 320 329 340 338 336 336 334 336 341 339 335 335 335 336 334 332 331 330 332 335 336 336 338 337 332 335 341 342 348 357 355 350 346 342 338 335 332 331 332 333 333 331 330 330 332 331 329 330 331 330
319 318 318 316 322 333 336 331 332 335 332 326 325 331 341 343 337 336 336 335 336 340 339 336 336 337 333 330 331 331 329 333 338 336 334 334 334 336 343 345 346 351 355 353 350 347 342 337 334 333 334 335 335 332 331 331 329 329 329 330 329 329 329
322 321 319 318 324 336 338 333 336 338 336 335 338 340 340 337 336 336 334 334 339 340 339 339 338 336 335 335 335 334 333 335 336 337 339 339 338 342 346 345 345 346 345 347 347 345 342 338 336 335 334 334 332 332 333 332 328 326 328 328 327 328 329
328 323 325 327 332 337 335 336 338 338 339 341 341 339 336 333 336 337 334 337 343 342 340 341 339 338 337 338 338 338 338 336 335 341 346 344 341 340 339 340 342 343 344 347 346 344 341 338 335 333 332 330 331 335 336 333 330 330 330 328 328 330 329
333 331 335 337 337 337 333 335 338 335 335 338 338 337 337 335 337 337 336 338 341 340 340 341 339 338 338 337 335 335 335 334 337 344 343 340 340 338 332 334 339 341 343 345 344 342 341 338 334 332 332 333 334 336 335 331 330 332 331 330 332 331 330
341 342 343 337 334 336 332 330 333 333 333 335 335 336 337 335 335 335 335 336 336 338 340 340 338 338 336 335 334 334 335 337 344 351 349 342 339 337 336 340 340 337 339 342 342 343 341 337 334 333 333 336 337 335 333 331 331 332 333 333 334 334 333
342 346 347 339 334 335 333 330 331 332 331 332 333 335 337 335 334 334 334 335 335 335 337 340 342 338 333 334 338 340 343 347 351 353 352 349 345 340 340 342 339 335 339 343 342 342 341 338 336 335 334 335 336 335 334 332 332 335 336 336 336 336 335
340 343 344 339 334 333 332 331 331 331 331 331 331 332 333 334 334 334 333 333 333 332 333 339 342 337 334 339 342 340 342 348 350 347 346 349 349 342 337 338 336 334 339 341 340 339 339 338 336 333 332 332 332 333 334 332 334 338 339 338 336 334 333
340 342 339 336 336 334 331 330 331 332 332 332 330 330 330 330 331 332 331 331 332 330 331 336 338 338 339 341 340 337 340 345 347 346 346 348 348 343 339 338 337 334 337 339 337 335 335 333 330 329 329 328 327 329 332 332 334 337 337 336 335 333 333
340 342 337 335 341 339 332 328 330 331 332 332 330 330 330 329 329 330 330 330 332 333 334 335 336 341 345 344 341 341 343 344 345 347 347 348 347 345 342 341 339 337 337 336 333 332 332 330 328 328 328 327 325 327 330 332 333 335 335 334 333 332 332
334 334 331 333 338 337 331 328 329 330 331 331 330 329 329 329 329 328 328 329 332 335 336 335 335 341 345 344 342 341 339 340 344 345 344 344 343 341 340 342 342 341 340 337 334 334 333 330 328 328 328 326 326 328 329 331 333 333 333 332 331 330 330
328 326 327 329 330 330 329 328 328 328 330 330 329 328 328 328 327 327 327 329 330 333 336 336 335 338 340 340 342 341 338 339 342 342 339 339 340 339 340 341 342 342 343 340 337 336 333 330 328 329 329 327 327 329 330 330 332 334 333 332 331 330 329
325 324 325 325 326 327 327 326 326 327 329 328 328 327 327 327 326 325 327 331 330 328 330 332 332 335 336 337 342 344 341 339 340 339 336 335 335 336 336 336 337 340 340 336 332 331 330 330 329 330 329 328 329 330 330 330 332 333 333 332 331 329 329
Wind_Speed
16 16 14 11 10 8 8 9 11 10 9 9 8 8 8 8 7 5 4 6 5 3 5 9 11 10 10 8 7 9 9 7 8 10 11 12 13 13 14 15 14 15 18 18 19 20 22 24 26 22 25 29 27 27 27 24 23 21 18 17 15 14 13
16 16 17 14 11 11 8 8 11 10 10 10 6 4 5 6 7 6 6 8 6 4 3 8 12 11 11 11 8 8 9 9 7 7 10 11 10 9 11 13 14 14 16 19 22 23 24 29 29 23 27 31 27 27 27 25 24 22 20 18 16 14 13
15 16 16 14 12 15 12 7 10 9 8 8 5 3 3 5 6 5 6 8 5 5 4 8 12 11 12 12 9 5 6 10 9 6 8 11 9 7 7 11 13 13 15 20 25 26 26 30 31 25 28 29 26 26 25 24 24 23 21 18 16 14 13
15 13 12 12 11 13 13 9 8 8 7 7 5 5 5 6 6 5 6 7 3 1 2 10 11 7 7 8 8 6 3 4 8 9 9 10 10 9 8 10 12 12 14 21 27 28 29 34 32 24 26 27 24 24 24 23 23 22 21 18 16 15 12
14 10 10 13 12 11 12 10 9 7 7 8 6 7 7 6 6 4 5 5 2 3 2 9 11 6 5 4 4 6 4 4 5 7 10 10 9 12 12 9 11 13 12 16 22 24 26 33 32 25 25 25 23 22 22 22 22 22 20 18 16 15 12
12 11 13 15 15 13 12 10 9 9 8 8 7 6 7 6 6 5 5 6 2 6 4 8 10 6 7 7 3 4 6 5 3 2 6 9 7 9 11 12 14 13 12 16 21 26 25 28 29 25 25 24 22 21 22 22 22 21 20 19 18 16 14
13 14 15 15 16 15 12 11 11 11 9 8 6 6 6 6 7 8 6 4 2 6 5 7 9 5 5 7 5 0 3 4 4 2 2 4 6 7 8 12 14 13 16 21 24 26 25 26 25 24 24 24 23 24 24 24 24 23 21 21 20 17 15
11 15 16 16 16 14 13 11 12 11 10 9 9 7 5 5 9 9 5 4 4 6 4 5 9 5 3 6 7 3 3 0 3 2 1 1 3 6 6 7 7 12 15 20 20 20 22 24 24 26 28 28 27 27 27 25 24 23 21 22 22 20 17
7 10 11 13 15 13 10 10 14 16 15 15 13 9 5 6 9 8 6 6 5 5 2 4 7 4 4 4 5 6 5 2 1 1 2 1 1 5 6 5 8 14 13 14 17 20 22 23 24 26 30 31 27 26 25 23 22 22 19 20 21 20 18
8 8 7 9 11 11 10 13 16 19 21 21 15 8 6 6 6 7 7 5 4 7 4 4 4 3 3 3 4 3 3 4 4 2 2 4 2 3 5 6 10 16 15 14 16 20 22 23 24 25 28 28 24 23 23 20 20 21 21 20 18 18 19
9 7 6 9 11 11 13 15 17 17 18 18 13 7 6 5 5 6 6 6 6 9 8 6 5 6 4 2 5 4 4 2 2 3 3 5 5 2 2 4 5 10 14 16 16 17 21 24 25 24 25 25 23 23 23 20 18 21 24 22 17 17 19
13 12 6 8 12 13 14 15 17 18 17 18 15 11 7 6 6 7 8 11 12 10 11 10 9 7 7 7 6 3 3 5 4 4 5 5 7 6 4 4 2 5 9 13 14 14 18 23 24 24 24 25 25 25 24 21 20 23 24 21 19 21 21
16 19 16 14 14 14 15 15 17 18 19 20 18 16 14 9 6 5 6 8 10 10 11 12 10 7 5 5 5 3 3 5 6 6 6 6 6 9 10 8 7 8 10 11 12 14 19 23 24 24 24 26 27 28 27 24 22 21 20 18 19 22 22
16 20 21 21 18 15 16 17 18 19 20 22 20 19 20 15 11 10 8 9 9 8 6 7 4 2 2 2 3 4 5 6 8 7 7 9 9 8 10 10 9 10 11 12 12 14 18 24 25 25 26 29 30 30 29 28 26 22 19 19 18 19 20
14 18 17 18 18 18 18 18 20 20 18 19 20 19 18 16 15 14 9 9 8 7 6 6 2 1 1 1 1 5 6 7 8 9 9 9 9 7 7 9 7 8 12 15 15 14 18 25 27 26 27 28 29 29 28 27 27 23 21 21 20 18 19
11 14 16 19 22 21 21 21 22 20 16 15 15 14 15 14 11 7 5 5 5 5 5 3 1 2 4 5 6 6 5 5 6 7 7 8 8 6 3 8 11 12 14 15 14 14 18 24 26 25 26 26 25 27 28 27 26 23 23 23 22 20 19
10 14 19 20 18 16 15 16 16 16 16 16 16 15 14 13 10 7 4 5 2 4 3 1 3 4 3 2 1 1 1 2 4 4 5 7 8 8 6 5 8 12 13 13 14 17 21 25 26 27 27 27 26 27 27 26 26 25 25 24 23 21 19
8 15 17 13 12 11 8 8 11 15 16 16 19 18 10 3 3 4 5 3 3 6 3 2 1 1 2 3 2 3 3 3 4 6 6 7 8 9 8 8 6 8 10 12 18 24 26 27 30 31 30 28 27 29 29 27 26 25 26 26 24 22 20
7 10 11 10 11 7 5 8 13 15 14 14 16 13 5 7 6 6 6 4 3 3 3 4 2 2 2 1 2 4 6 6 5 6 7 6 8 8 7 8 7 5 8 10 17 25 28 29 31 31 30 29 29 30 28 23 21 26 27 26 25 23 21
8 7 9 10 7 4 6 9 10 8 8 11 13 10 2 4 6 6 6 5 3 3 3 3 3 3 2 0 3 6 10 10 7 5 7 7 8 8 7 7 7 6 10 15 18 23 28 31 29 27 28 30 30 27 19 13 19 26 26 25 24 22 21
7 9 10 7 4 5 6 7 7 7 8 8 7 7 8 5 3 1 5 7 5 6 5 4 3 3 3 3 4 5 6 3 6 3 6 8 8 6 3 3 6 8 11 19 23 24 24 26 26 27 29 30 29 23 17 18 21 24 25 24 23 22 22
5 8 10 8 8 9 6 6 8 7 9 10 6 5 6 4 5 5 5 8 6 5 4 3 2 4 2 5 0 5 6 2 2 4 4 5 8 5 0 2 7 10 12 18 20 20 23 25 28 32 31 28 25 22 22 23 22 21 21 22 23 23 23
5 8 9 8 9 7 3 8 11 7 8 11 7 5 5 3 3 4 4 6 6 5 4 4 4 2 5 3 3 1 2 2 2 0 2 5 8 2 3 3 8 12 14 13 13 18 23 26 30 32 29 25 23 22 22 22 20 18 20 22 23 24 23
8 10 8 6 7 4 1 5 8 5 7 10 9 7 3 1 1 2 4 5 7 7 4 3 3 4 4 2 2 2 2 2 2 3 2 5 4 2 2 2 8 15 13 11 18 23 26 28 27 23 21 22 22 21 20 19 18 20 23 24 23 24 23
9 9 8 8 7 3 1 4 8 6 5 7 8 6 1 3 2 0 1 2 5 6 4 4 3 3 2 2 5 4 5 6 2 5 2 7 6 6 6 6 9 14 13 20 27 27 29 32 29 23 22 22 20 19 19 18 18 19 22 25 23 21 21
10 9 9 9 6 2 4 6 8 7 2 4 3 1 2 4 5 4 2 2 4 1 2 2 2 2 1 5 9 6 6 9 4 4 5 9 8 5 5 7 5 9 7 6 20 27 30 29 24 24 25 20 17 20 21 21 21 18 18 21 20 19 20
6 7 7 7 4 3 8 8 6 8 4 2 2 3 2 1 3 4 3 2 4 4 4 3 5 7 6 7 10 10 8 9 9 5 6 6 5 5 9 9 9 6 4 1 12 22 28 27 22 24 24 16 14 19 18 18 20 17 14 16 17 17 18
1 3 2 1 2 5 8 6 2 5 6 1 2 3 2 1 4 4 4 5 6 5 6 5 5 7 7 6 8 11 9 8 11 8 4 3 1 6 9 9 13 17 16 17 19 21 24 24 19 18 20 16 14 8 3 1 1 0 4 8 10 9 10
2 2 3 1 3 4 8 8 4 5 8 7 7 7 4 3 5 4 4 4 5 5 7 8 7 7 7 7 10 12 10 9 9 3 6 3 6 7 6 9 18 23 21 21 20 15 15 19 16 13 16 13 7 4 8 6 7 7 8 11 11 10 12
3 3 2 2 3 4 9 10 8 9 10 9 9 9 7 5 4 2 3 4 5 5 6 7 7 7 8 10 11 12 13 11 6 3 7 4 5 4 9 8 3 11 12 14 18 16 17 22 21 14 13 10 4 3 2 3 5 7 12 13 13 13 13
1 2 4 5 3 3 8 9 9 9 10 9 8 7 6 5 4 3 3 4 4 5 5 5 6 9 11 11 10 9 9 5 5 6 6 7 11 15 19 21 19 17 15 14 17 17 16 21 22 17 12 8 4 3 4 5 9 13 15 13 11 11 11
5 4 6 8 4 8 10 8 6 6 6 7 7 6 6 7 7 6 5 4 5 6 6 6 7 10 10 8 7 8 5 4 9 12 11 10 12 17 20 21 21 24 24 20 14 13 15 19 21 17 12 6 3 5 7 8 10 14 14 9 7 11 12
3 5 6 9 8 11 10 7 6 5 4 5 6 6 7 8 8 8 8 7 7 9 8 7 7 9 6 6 8 7 5 7 7 9 10 10 11 15 20 21 20 24 26 20 13 12 14 14 13 13 10 5 3 3 5 6 8 10 8 6 7 10 9
2 3 2 1 5 6 6 6 7 5 4 4 5 6 7 8 9 9 10 10 9 11 12 11 8 5 5 6 7 4 8 10 8 9 10 11 12 14 17 20 22 23 22 18 14 13 13 11 10 9 8 8 7 7 6 5 5 5 5 5 6 7 6
5 4 5 5 4 4 3 5 5 4 4 4 5 6 7 8 8 9 10 10 10 11 12 11 9 6 4 5 6 8 8 8 10 13 11 10 12 13 14 16 18 20 22 22 18 15 17 18 16 13 12 11 8 8 8 7 5 6 6 6 7 7 6
7 6 6 6 4 2 2 4 4 3 3 4 5 7 8 9 9 9 9 9 9 9 9 9 9 8 3 2 7 9 6 5 9 13 13 13 15 17 16 16 16 15 18 22 21 19 20 20 18 16 14 11 9 9 9 7 8 9 8 8 8 8 7
7 7 6 5 5 6 5 5 5 2 4 4 6 7 8 9 9 9 8 8 8 9 10 10 9 8 7 3 4 7 7 6 8 13 15 16 16 16 14 15 17 18 20 21 22 22 21 20 18 17 15 11 10 11 9 8 8 10 11 11 9 9 8
Wind_Direction
188 201 235 214 185 198 193 196 226 242 229 215 218 236 251 264 260 244 224 225 208 175 190 168 154 163 164 158 174 183 182 179 171 179 192 200 203 199 190 182 177 175 173 166 161 157 158 179 206 203 171 163 164 165 167 168 168 169 173 179 183 185 181
194 198 230 227 201 211 211 192 209 237 250 241 240 246 242 256 258 234 220 234 216 201 205 150 154 170 162 161 189 192 168 168 191 198 187 191 199 201 188 175 172 171 167 162 163 167 173 187 205 200 170 166 168 167 168 168 168 171 175 181 185 185 182
194 190 221 232 207 211 229 213 194 210 236 235 237 274 271 262 259 246 243 252 240 232 211 143 154 168 161 160 165 173 176 175 189 200 175 178 195 205 182 171 178 178 168 169 173 177 181 189 202 196 169 164 167 166 169 170 170 173 175 181 185 182 182
195 184 205 227 207 206 226 229 207 210 239 241 213 202 232 255 253 244 243 240 218 264 190 147 155 166 153 145 141 152 213 205 186 180 170 180 195 200 193 181 178 174 173 179 182 184 185 187 193 184 165 164 167 167 171 172 173 175 177 181 183 179 182
200 190 195 218 212 202 212 221 223 221 235 245 224 197 206 234 249 254 256 247 132 56 60 130 131 122 119 129 140 147 174 251 220 172 168 182 196 198 193 176 168 171 167 166 178 192 191 182 180 175 167 169 170 169 173 176 176 177 179 181 179 179 184
213 205 193 214 223 215 203 203 220 226 226 234 229 208 202 215 245 255 260 265 126 96 84 113 126 148 163 166 176 155 174 209 224 164 174 177 186 203 197 177 170 165 146 153 183 203 194 175 175 180 175 172 175 177 178 180 181 181 182 181 178 179 184
220 210 190 207 229 233 220 204 208 218 221 228 227 214 200 202 231 236 240 265 137 122 132 134 135 152 159 138 118 169 233 185 156 177 215 177 178 198 213 201 178 154 149 165 185 198 187 170 172 178 175 177 185 186 183 182 183 184 184 181 178 179 183
211 206 191 196 213 231 234 214 207 217 224 232 239 239 216 210 231 231 225 236 176 139 152 145 124 119 150 139 132 175 260 97 127 157 75 335 189 172 213 237 172 138 148 158 165 179 179 171 174 179 181 188 192 186 185 186 183 184 186 179 176 179 182
193 197 196 192 194 211 236 225 210 210 215 222 235 244 221 217 240 237 231 229 171 128 98 100 113 147 222 189 151 174 194 172 196 236 149 169 228 163 202 231 137 135 153 160 164 178 180 177 185 187 185 188 187 178 180 186 183 184 181 165 163 175 182
197 191 206 212 198 194 216 232 223 214 212 214 219 228 213 208 227 227 234 241 132 120 125 113 126 202 259 304 285 241 207 174 178 214 169 165 187 183 205 209 157 153 165 173 177 181 183 188 192 189 182 179 173 167 173 182 185 184 175 161 160 176 186
231 210 191 214 220 202 197 215 230 234 233 228 221 221 218 191 183 197 213 220 177 149 158 172 205 217 188 216 264 285 324 319 178 191 186 167 171 176 234 235 183 154 158 170 178 178 182 189 187 178 172 167 162 162 169 181 185 175 170 171 179 189 194
242 251 233 218 228 223 210 210 223 232 242 249 245 238 227 180 174 200 195 200 204 184 177 193 211 211 181 170 189 218 279 291 271 234 216 191 173 175 217 239 151 127 155 174 181 176 174 176 172 167 163 161 161 161 169 183 182 167 165 176 189 194 198
229 248 257 251 242 234 225 225 228 222 224 238 248 252 247 220 201 215 169 181 216 209 194 202 207 214 205 165 164 204 244 267 270 257 244 241 212 188 198 200 171 167 176 178 181 182 174 168 166 165 161 161 163 165 174 188 183 170 173 184 192 195 194
222 229 239 246 251 248 233 231 237 231 221 223 230 244 250 241 232 226 177 167 215 230 227 231 221 222 278 34 24 319 312 303 286 276 269 269 261 218 191 181 173 169 168 179 191 188 177 170 167 167 165 167 170 170 178 185 180 177 185 190 193 191 183
235 227 229 238 248 253 246 238 240 242 238 229 223 229 239 239 239 235 201 172 191 203 218 233 215 113 117 72 341 286 286 280 268 269 273 272 271 250 188 162 163 162 168 187 196 187 177 173 170 169 170 171 173 173 177 179 175 180 190 191 192 187 181
245 238 235 233 233 239 245 244 239 237 240 240 233 229 232 233 232 230 217 213 205 179 183 210 232 205 188 178 201 228 244 258 262 269 281 287 292 291 213 175 184 185 182 184 184 176 172 170 169 168 168 168 170 174 180 179 177 183 189 188 188 187 187
236 240 243 241 237 235 242 250 248 239 235 238 240 239 237 235 226 205 205 243 254 86 104 241 268 242 219 192 213 268 328 323 304 287 288 295 296 299 293 245 204 192 182 171 170 174 172 171 172 172 172 176 183 187 189 184 179 183 185 184 186 187 190
239 244 254 263 257 243 246 268 269 262 257 255 254 247 232 202 196 147 107 111 86 79 114 186 234 303 330 344 344 331 306 290 283 270 272 282 279 280 286 279 242 202 183 173 174 177 176 176 179 181 181 184 191 198 195 180 176 187 187 182 185 188 189
252 251 255 258 251 253 308 297 268 264 277 294 290 268 201 121 113 114 117 143 135 90 108 105 79 244 227 225 240 260 261 250 253 264 260 256 262 266 268 273 267 218 181 176 175 176 178 180 182 185 188 188 190 190 181 171 185 199 191 177 177 182 183
244 241 238 239 245 280 314 294 276 282 306 322 329 324 307 117 119 139 155 168 198 228 162 147 231 226 163 148 260 262 251 228 216 265 279 266 260 250 233 241 256 229 194 187 184 183 183 183 183 182 182 182 181 174 170 191 207 196 179 166 168 177 184
241 241 240 236 251 257 263 286 305 316 305 302 323 319 305 327 340 228 141 135 184 206 176 190 213 96 60 291 290 323 310 188 152 216 277 286 285 272 241 235 261 256 215 193 191 187 178 175 177 174 166 164 167 171 191 209 192 168 159 162 170 182 190
252 250 247 242 244 241 238 261 269 280 296 301 311 283 268 296 294 261 154 139 177 182 157 183 125 79 287 258 329 3 343 16 152 208 232 281 287 278 281 304 280 263 225 202 196 183 168 162 163 162 158 157 166 186 202 193 170 157 163 171 179 189 194
238 242 244 245 247 244 251 257 245 234 264 284 297 283 255 232 239 238 185 177 182 158 170 185 136 156 251 243 92 43 288 253 260 331 54 302 297 335 68 341 287 262 236 209 176 158 156 154 152 156 158 159 175 197 197 177 165 169 176 180 189 197 199
226 234 241 251 252 245 264 275 265 241 238 253 253 240 225 182 213 246 250 218 167 137 162 190 166 215 251 312 2 349 344 276 194 92 15 294 297 2 16 287 264 256 237 175 139 140 149 149 146 152 160 167 184 196 183 170 177 185 185 190 197 201 203
233 235 243 253 253 244 230 283 286 272 220 218 229 224 203 18 346 220 193 168 132 131 176 201 211 217 206 302 295 305 321 300 207 134 261 273 248 234 224 190 215 239 215 164 150 148 151 149 146 153 170 182 192 188 173 179 194 193 189 193 197 201 206
237 234 242 247 244 301 328 304 317 334 290 216 220 297 344 349 12 32 47 96 82 60 233 220 282 291 266 297 304 321 328 311 294 170 221 262 256 217 139 100 54 347 337 149 145 143 145 147 152 171 183 185 183 180 184 194 199 197 194 194 200 210 215
241 238 245 247 244 325 326 311 338 21 25 249 294 12 337 286 52 26 325 4 40 356 315 337 334 317 317 323 323 322 313 298 285 243 205 236 251 145 118 102 89 67 351 192 139 143 154 162 171 180 181 180 180 183 193 201 199 201 205 201 207 218 220
265 240 227 257 309 1 17 18 40 78 88 120 326 5 337 323 43 27 342 11 27 352 332 339 315 299 310 326 314 301 286 269 269 257 184 168 215 136 136 148 152 161 182 184 172 169 169 172 175 163 161 187 206 185 145 320 172 84 273 250 240 237 243
94 136 149 148 309 354 44 55 64 82 76 57 27 29 38 40 34 10 324 350 12 354 340 336 322 311 315 311 300 293 286 272 267 240 120 144 248 227 196 190 184 182 183 177 172 163 145 151 165 150 143 170 194 72 44 11 10 8 321 295 291 286 282
59 30 22 16 2 37 60 56 47 50 54 47 38 37 40 41 34 349 313 346 353 338 325 320 313 309 304 297 293 293 292 287 271 172 139 169 245 301 346 344 215 192 184 153 131 109 108 132 149 147 126 122 102 40 4 287 287 282 275 274 275 274 274
189 359 330 305 309 75 78 65 51 48 46 40 37 39 33 24 18 16 17 0 322 293 288 289 285 282 280 279 281 290 298 320 28 58 62 58 59 52 35 28 39 46 35 49 82 93 102 117 124 124 113 101 101 159 197 229 238 239 241 242 247 260 263
178 167 206 214 172 88 78 75 60 50 48 43 37 34 33 28 18 8 357 325 288 280 277 269 272 280 286 296 308 318 336 53 67 61 55 53 62 70 68 62 67 74 68 59 62 74 84 96 103 104 106 114 154 177 199 222 212 205 211 219 246 267 262
143 142 193 194 143 90 73 79 73 47 34 43 40 32 33 31 21 6 354 342 324 312 305 295 287 290 308 327 319 329 28 72 81 82 86 88 87 92 94 94 101 106 104 99 92 77 73 78 79 73 75 80 90 132 178 192 172 169 188 217 250 259 249
109 95 2 356 125 99 63 60 62 44 24 29 34 34 30 25 18 8 358 352 344 331 321 315 308 318 359 356 337 16 72 83 89 95 98 93 87 89 97 104 111 117 118 116 114 109 107 111 107 96 96 95 87 95 115 128 138 158 183 206 227 233 224
105 83 34 35 90 115 78 45 36 37 31 12 13 30 26 13 8 6 358 352 346 337 327 320 318 333 13 40 57 76 85 89 94 100 105 104 98 97 100 106 114 123 128 128 128 129 126 124 127 126 118 111 114 121 119 120 143 169 178 193 220 230 225
90 67 48 37 20 359 17 12 358 27 55 15 357 10 9 358 355 355 350 341 334 327 320 312 309 307 302 113 107 109 111 91 91 104 110 111 114 118 119 117 117 121 127 130 133 133 127 125 130 131 124 120 125 125 124 136 156 167 179 197 216 229 229
66 63 51 29 343 317 321 324 307 318 70 40 357 350 350 343 336 333 332 327 320 312 305 299 299 297 289 272 135 143 154 147 138 132 119 109 117 130 134 132 134 139 141 138 135 135 135 136 136 133 129 126 122 124 138 158 166 175 191 206 219 231 234